Hettinger, ND

12:11 AM MDT on April 26, 2017 (GMT -0600)
Hettinger Municipal

Weather History for KHEI - February, 2013

Change the Weather History Date:

Sunday, February 24, 2013

  Actual Average Record
Temperature  
Mean Temperature 28 °F -  
Max Temperature 38 °F 34 °F 55 °F (2005)
Min Temperature 17 °F 12 °F -23 °F (2003)
Degree Days  
Heating Degree Days 37 42  
Month to date heating degree days 925 1074  
Since 1 July heating degree days 5813 6150  
Moisture  
Dew Point 24 °F    
Average Humidity 81    
Maximum Humidity 92    
Minimum Humidity 52    
Precipitation  
Precipitation 0.01 in 0.01 in 0.10 in (2009)
Month to date precipitation 0.10 0.37  
Year to date precipitation 0.13 0.68  
Sea Level Pressure  
Sea Level Pressure 30.03 in    
Wind  
Wind Speed 10 mph (NW)    
Max Wind Speed 24 mph    
Max Gust Speed 28 mph    
Visibility 8 miles    
Events Snow    
T = Trace of Precipitation, MM = Missing Value Source: NWS Daily Summary

Daily Weather History Graph

Daily Weather History Graph

Search for Another Location

Airport or City:

Trip Planner

Search our weather history database for the weather conditions in past years. The results will help you decide how hot, cold, wet, or windy it might be!

Date:

Astronomy

Feb. 24, 2013 Rise Set
Actual Time 6:37 AM MST 5:30 PM MST
Civil Twilight 6:07 AM MST 6:00 PM MST
Nautical Twilight 5:33 AM MST 6:35 PM MST
Astronomical Twilight 4:58 AM MST 7:09 PM MST
Moon 4:43 PM MST (2/24) 5:37 AM MST (2/24)
Length of Visible Light 11h 53m
Length of Day
10h 52m
Waxing Gibbous, 99% of the Moon is Illuminated
Feb 24
Waxing Gibbous
Feb 25
Full
Mar 4
Last Quarter
Mar 11
New
Mar 19
First Quarter

Hourly Weather History & Observations

Time (MST) Temp. Windchill Dew Point Humidity Pressure Visibility Wind Dir Wind Speed Gust Speed Precip Events Conditions
12:53 AM 30.9 °F 27.5 °F 28.9 °F 92% 29.88 in 10.0 mi NW 3.5 mph - 0.00 in   Overcast
1:53 AM 30.0 °F 24.1 °F 27.0 °F 88% 29.89 in 10.0 mi NW 5.8 mph - N/A   Overcast
2:53 AM 30.0 °F 22.4 °F 26.1 °F 85% 29.90 in 10.0 mi NW 8.1 mph - N/A   Overcast
3:53 AM 28.0 °F 20.0 °F 25.0 °F 88% 29.91 in 10.0 mi NW 8.1 mph - 0.01 in   Clear
4:53 AM 28.9 °F 20.4 °F 26.1 °F 89% 29.94 in 10.0 mi WNW 9.2 mph - N/A   Overcast
5:53 AM 28.9 °F 21.1 °F 27.0 °F 92% 29.96 in 10.0 mi WNW 8.1 mph - N/A   Overcast
6:37 AM 30.2 °F 21.9 °F 26.6 °F 86% 29.90 in 10.0 mi WNW 9.2 mph - N/A   Overcast
6:53 AM 30.0 °F 21.1 °F 27.0 °F 88% 29.98 in 10.0 mi WNW 10.4 mph - N/A   Overcast
7:53 AM 30.9 °F 21.2 °F 28.0 °F 89% 30.01 in 7.0 mi WNW 12.7 mph - N/A   Overcast
8:11 AM 30.2 °F 18.9 °F 26.6 °F 86% 29.95 in 5.0 mi NW 16.1 mph - N/A   Overcast
8:53 AM 30.0 °F 18.3 °F 26.1 °F 85% 30.05 in 4.0 mi NW 17.3 mph 23.0 mph N/A   Overcast
9:18 AM 28.4 °F 17.0 °F 26.6 °F 93% 29.98 in 1.8 mi WNW 15.0 mph - 0.00 in Snow Light Snow
9:51 AM 28.4 °F 16.2 °F 24.8 °F 86% 29.99 in 2.5 mi NW 17.3 mph - 0.00 in Snow Light Snow
9:53 AM 28.9 °F 16.9 °F 25.0 °F 85% 30.08 in 2.5 mi NW 17.3 mph - 0.00 in Snow Light Snow
10:07 AM 28.4 °F 15.8 °F 24.8 °F 86% 29.99 in 4.0 mi WNW 18.4 mph - 0.00 in Snow Light Snow
10:40 AM 28.4 °F 16.6 °F 24.8 °F 86% 30.00 in 6.0 mi NW 16.1 mph - 0.00 in   Overcast
10:53 AM 30.9 °F 20.7 °F 26.1 °F 82% 30.08 in 7.0 mi NW 13.8 mph - 0.00 in   Overcast
11:34 AM 32.0 °F 20.8 °F 26.6 °F 80% 30.00 in 10.0 mi NW 17.3 mph - N/A   Overcast
11:53 AM 33.1 °F 22.6 °F 27.0 °F 78% 30.07 in 10.0 mi NW 16.1 mph - N/A   Overcast
12:12 PM 33.8 °F 22.2 °F 26.6 °F 75% 29.99 in 10.0 mi NNW 20.7 mph 25.3 mph N/A   Overcast
12:53 PM 35.1 °F 23.5 °F 26.1 °F 70% 30.06 in 10.0 mi NNW 21.9 mph 25.3 mph N/A   Overcast
1:53 PM 37.9 °F 27.9 °F 26.1 °F 62% 30.06 in 10.0 mi NNW 19.6 mph 24.2 mph N/A   Scattered Clouds
2:53 PM 37.9 °F 30.5 °F 24.1 °F 57% 30.06 in 10.0 mi NNW 11.5 mph 23.0 mph N/A   Scattered Clouds
3:53 PM 37.0 °F 29.3 °F 21.0 °F 52% 30.08 in 10.0 mi NNW 11.5 mph - N/A   Clear
4:53 PM 35.1 °F 27.4 °F 21.9 °F 59% 30.10 in 10.0 mi NNW 10.4 mph - N/A   Clear
5:53 PM 28.0 °F 20.8 °F 19.9 °F 72% 30.12 in 10.0 mi North 6.9 mph - N/A   Clear
6:53 PM 26.1 °F 20.5 °F 19.0 °F 75% 30.14 in 10.0 mi North 4.6 mph - N/A   Clear
7:53 PM 21.0 °F 14.6 °F 17.1 °F 85% 30.16 in 10.0 mi WNW 4.6 mph - N/A   Clear
8:53 PM 19.9 °F - 16.0 °F 85% 30.16 in 10.0 mi Calm Calm - N/A   Clear
9:53 PM 18.0 °F 12.7 °F 14.0 °F 84% 30.17 in 10.0 mi West 3.5 mph - N/A   Clear
10:53 PM 19.0 °F - 12.9 °F 77% 30.15 in 10.0 mi Calm Calm - N/A   Clear
11:53 PM 18.0 °F 12.7 °F 14.0 °F 84% 30.14 in 10.0 mi NW 3.5 mph - N/A   Clear